TimeEDT,TemperatureF,Dew PointF,Humidity,Sea Level PressureIn,VisibilityMPH,Wind Direction,Wind SpeedMPH,Gust SpeedMPH,PrecipitationIn,Events,Conditions,WindDirDegrees,DateUTC
12:04 AM,37.4,35.6,93,29.96,10.0,Variable,4.6,-,N/A,,Overcast,0,2012-10-29 04:04:00
12:13 AM,37.4,35.6,93,29.96,10.0,Variable,5.8,-,N/A,,Overcast,0,2012-10-29 04:13:00
12:35 AM,37.4,35.6,93,29.96,10.0,Variable,6.9,-,N/A,,Overcast,0,2012-10-29 04:35:00
12:53 AM,39.0,35.1,86,29.97,10.0,Variable,5.8,-,0.00,,Overcast,0,2012-10-29 04:53:00
1:53 AM,39.0,34.0,82,29.96,10.0,Variable,4.6,-,N/A,,Overcast,0,2012-10-29 05:53:00
2:53 AM,39.0,34.0,82,29.95,10.0,NNW,5.8,18.4,N/A,,Overcast,330,2012-10-29 06:53:00
3:07 AM,37.4,33.8,87,29.94,10.0,Variable,6.9,18.4,N/A,,Overcast,0,2012-10-29 07:07:00
3:53 AM,37.9,34.0,86,29.95,10.0,Variable,5.8,-,0.00,Rain,Light Rain,0,2012-10-29 07:53:00
4:53 AM,37.0,34.0,89,29.94,10.0,Variable,4.6,-,0.01,Rain,Light Rain,0,2012-10-29 08:53:00
5:53 AM,37.0,34.0,89,29.95,10.0,Variable,4.6,-,0.00,Rain,Light Rain,0,2012-10-29 09:53:00
6:13 AM,35.6,33.8,93,29.92,10.0,Variable,5.8,19.6,N/A,Rain,Light Rain,0,2012-10-29 10:13:00
6:53 AM,36.0,34.0,93,29.94,10.0,North,9.2,-,0.00,Rain,Light Rain,360,2012-10-29 10:53:00
7:53 AM,36.0,34.0,93,29.95,10.0,NNW,8.1,-,0.01,Rain,Light Rain,330,2012-10-29 11:53:00
8:53 AM,36.0,33.1,89,29.94,10.0,NNW,12.7,18.4,0.00,,Overcast,340,2012-10-29 12:53:00
9:53 AM,36.0,34.0,93,29.93,10.0,NW,5.8,17.3,0.00,,Overcast,320,2012-10-29 13:53:00
10:53 AM,37.0,33.1,86,29.92,10.0,Variable,6.9,18.4,N/A,,Overcast,0,2012-10-29 14:53:00
11:53 AM,37.0,34.0,89,29.91,9.0,NNW,9.2,17.3,0.00,Rain,Light Rain,340,2012-10-29 15:53:00
12:53 PM,37.0,35.1,93,29.90,9.0,NW,8.1,16.1,0.02,Rain,Light Rain,320,2012-10-29 16:53:00
1:53 PM,37.0,34.0,89,29.88,9.0,NW,10.4,20.7,0.03,Rain,Light Rain,320,2012-10-29 17:53:00
2:53 PM,37.0,35.1,93,29.86,7.0,WNW,10.4,18.4,0.03,Rain,Light Rain,300,2012-10-29 18:53:00
3:53 PM,37.0,35.1,93,29.84,5.0,WNW,9.2,16.1,0.03,Rain,Light Rain,300,2012-10-29 19:53:00
4:53 PM,37.0,35.1,93,29.83,5.0,NW,9.2,21.9,0.06,Rain,Light Rain,320,2012-10-29 20:53:00
5:53 PM,37.0,35.1,93,29.81,5.0,WNW,11.5,20.7,0.04,Rain,Light Rain,290,2012-10-29 21:53:00
6:53 PM,36.0,34.0,93,29.80,10.0,WNW,13.8,20.7,0.04,Rain,Light Rain,300,2012-10-29 22:53:00
7:53 PM,36.0,33.1,89,29.78,8.0,WNW,11.5,21.9,0.04,Rain,Light Rain,300,2012-10-29 23:53:00
8:53 PM,35.1,32.0,89,29.77,9.0,WNW,13.8,21.9,0.03,Rain,Light Rain,300,2012-10-30 00:53:00
9:48 PM,33.8,32.0,93,29.74,3.0,WNW,8.1,20.7,0.03,Snow,Light Snow,290,2012-10-30 01:48:00
9:53 PM,33.1,32.0,96,29.76,3.0,WNW,9.2,-,0.03,Snow,Light Snow,290,2012-10-30 01:53:00
10:49 PM,33.8,32.0,93,29.72,4.0,WNW,9.2,19.6,0.02,Snow,Light Snow,290,2012-10-30 02:49:00
10:53 PM,33.1,32.0,96,29.74,4.0,WNW,11.5,17.3,0.02,Snow,Light Snow,300,2012-10-30 02:53:00
11:53 PM,33.1,32.0,96,29.71,4.0,West,11.5,19.6,0.02,Snow,Light Snow,280,2012-10-30 03:53:00